Effective Sunday, March 17, 2024, the National Weather Service National Data Buoy Center will discontinue its Dial-A-Buoy Interactive Voice Response system. For more information, see Service Change Notice 24-06 (PDF).

Station 46027 (LLNR 562) - ST GEORGES - 8 NM NW of Crescent City, CA Image indicating link to RSS feed of recent meteorological observations for station 46027


Conditions at 46027 as of
(4:40 pm PST on 02/29/2024)
0040 GMT on 03/01/2024:
     

Click on the graph icon in the table below to see a time series plot of the last five days of that observation.

5-day plot - Wind Direction Wind Direction (WDIR): SW ( 230 deg true )
5-day plot - Wind Speed Wind Speed (WSPD): 19.4 kts
5-day plot - Wind Gust Wind Gust (GST): 25.3 kts
5-day plot - Atmospheric Pressure Atmospheric Pressure (PRES):29.76 in
5-day plot - Air Temperature Air Temperature (ATMP): 50.0 °F
5-day plot - Water Temperature Water Temperature (WTMP): 53.4 °F
5-day plot - Wind Chill Wind Chill (CHILL): 43.2 °F
5-day plot - Wind Speed at 10 Meters Wind Speed at 10 meters (WSPD10M): 21.4 kts
5-day plot - Wind Speed at 20 Meters Wind Speed at 20 meters (WSPD20M): 23.3 kts
5-day plot -  Wind Speed, Wind Gust and Atmospheric Pressure Combined plot of Wind Speed, Gust, and Air Pressure
Supplemental Measurements
Highest 1-minute Wind Speed
Time (PST)5-day plot - 1-Minute Wind Speed WSPD 5-day plot - 1-Minute Wind Direction WDIR
4:38 pm 21.4 kts-
Previous observations
TIME
(PST)
5-day plot - Wind Direction
WDIR
 
5-day plot - Wind Speed
WSPD
kts
5-day plot - Wind Gust
GST
kts
5-day plot - Wave Height
WVHT
ft
5-day plot - Dominant Wave Period
DPD
sec
5-day plot - Average Wave Period
APD
sec
5-day plot - Mean Wave Direction
MWD
 
5-day plot - Atmospheric Pressure
PRES
in
5-day plot - Pressure Tendency
PTDY
in
5-day plot - Air Temperature
ATMP
°F
5-day plot - Water Temperature
WTMP
°F
5-day plot - Dew Point
DEWP
°F
5-day plot - Salinity
SAL
psu
5-day plot - Visibility
VIS
nmi
5-day plot - Tide (above MLLW)
TIDE
ft
2024-02-29 04:30 pmWSW 19.4 25.3----29.77- 49.8 53.4----
2024-02-29 04:20 pm SW 19.4 25.3 15.1 117.7 W29.77- 49.6 53.4----
2024-02-29 04:10 pm SW 19.4 23.3 15.1-7.7 W29.78- 48.4 53.4----
2024-02-29 04:00 pm SW 19.4 27.2----29.78+0.00 47.3 53.4----
2024-02-29 03:50 pm SW 21.4 27.2 14.4 157.7WNW29.79- 46.9 53.4----
2024-02-29 03:00 pmSSW 21.4 27.2 13.1-7.6WNW29.78+0.00 49.3 53.4----
2024-02-29 02:50 pm SW 21.4 27.2 16.1 148.1WNW29.78- 50.2 53.4----
2024-02-29 02:40 pmWSW 21.4 27.2 16.1-8.1WNW29.78- 50.5 53.4----
2024-02-29 02:30 pm SW 21.4 27.2----29.78- 50.4 53.4----
2024-02-29 02:20 pm SW 21.4 27.2 13.8 117.6WNW29.78- 50.2 53.4----
2024-02-29 02:10 pm SW 21.4 25.3 13.8-7.6WNW29.78- 49.8 53.4----
2024-02-29 02:00 pm SW 21.4 27.2----29.79+0.03 49.6 53.4----
2024-02-29 01:50 pm SW 21.4 27.2 13.5 157.5WNW29.79- 49.1 53.4----
2024-02-29 01:40 pmWSW 19.4 23.3 13.5-7.5WNW29.78- 48.6 53.4----
2024-02-29 01:30 pmWSW 17.5 23.3----29.79- 47.5 53.4----
2024-02-29 01:20 pmWSW 21.4 29.1 12.5 117.1 W29.79- 48.2 53.4----
2024-02-29 01:10 pm SW 19.4 25.3----29.78- 49.5 53.4----
2024-02-29 01:00 pmWSW 19.4 27.2----29.78+0.05 49.6 53.4----
2024-02-29 12:50 pmWSW 21.4 25.3 13.8 157.6 W29.78- 49.8 53.4----
2024-02-29 12:40 pmWSW 21.4 27.2 13.8-7.6 W29.78- 49.6 53.4----
2024-02-29 12:30 pmWSW 21.4 27.2----29.78- 49.5 53.4----
2024-02-29 12:20 pmWSW 23.3 29.1 13.1 117.2 W29.78- 49.1 53.4----
2024-02-29 12:10 pmWSW 21.4 27.2----29.78- 48.4 53.4----
2024-02-29 12:00 pmWSW 19.4 27.2----29.78+0.05 46.4 53.4----
2024-02-29 11:50 amWSW 23.3 35.0 12.5 117.0 W29.78- 48.6 53.4----
2024-02-29 11:40 amWSW 21.4 27.2----29.77- 48.7 53.4----
2024-02-29 11:30 amWSW 21.4 25.3----29.77- 48.0 53.4----
2024-02-29 11:20 am W 21.4 27.2 12.8 117.0 W29.76- 46.9 53.4----
2024-02-29 11:10 am W 21.4 29.1 12.8-7.0 W29.76- 47.1 53.4----
2024-02-29 11:00 amWSW 21.4 29.1----29.76+0.03 48.7 53.4----
2024-02-29 10:50 amWSW 21.4 27.2 13.5 117.3 W29.75- 49.8 53.4----
2024-02-29 10:40 amWSW 23.3 27.2----29.75- 50.7 53.4----
2024-02-29 10:30 amWSW 21.4 27.2----29.75- 50.5 53.4----
2024-02-29 10:20 amWSW 21.4 29.1 13.1 117.4 W29.74- 50.0 53.4----
2024-02-29 10:10 amWSW 23.3 31.1----29.74- 49.6 53.4----
2024-02-29 10:00 amWSW 21.4 31.1----29.74+0.02 50.5 53.4----
2024-02-29 09:50 amWSW 19.4 27.2 13.1 117.6 W29.74- 49.5 53.4----
2024-02-29 09:40 am SW 21.4 27.2----29.73- 48.7 53.4----
2024-02-29 09:30 am SW 21.4 29.1----29.73- 48.6 53.4----
2024-02-29 09:20 am SW 19.4 25.3 12.8 117.5 W29.72- 48.6 53.4----
2024-02-29 09:10 am SW 19.4 25.3----29.72- 48.0 53.4----
2024-02-29 09:00 am SW 17.5 25.3----29.73+0.03 48.7 53.4----
2024-02-29 08:50 am SW 17.5 23.3 11.8 117.2 W29.73- 50.0 53.4----
2024-02-29 08:40 am SW 15.5 21.4----29.73- 50.4 53.4----
2024-02-29 08:30 am SW 17.5 23.3----29.73- 50.4 53.4----
2024-02-29 08:20 am SW 17.5 23.3 14.1 117.6 W29.73- 50.2 53.4----
2024-02-29 08:10 am SW 17.5 23.3----29.73- 49.5 53.4----
2024-02-29 08:00 am SW 15.5 21.4----29.73+0.04 48.6 53.4----
2024-02-29 07:50 am SW 15.5 21.4 12.5 87.1SSW29.71- 48.7 53.4----
2024-02-29 07:40 amWSW 17.5 23.3 12.5-7.1SSW29.72- 48.6 53.4----
2024-02-29 07:30 amWSW 17.5 23.3----29.72- 47.7 53.4----
2024-02-29 07:20 amWSW 17.5 23.3 13.8 87.4 S29.72- 46.6 53.4----
2024-02-29 07:10 amWSW 17.5 23.3 13.8-7.4 S29.72- 46.4 53.4----
2024-02-29 07:00 am W 17.5 25.3----29.72+0.07 45.7 53.4----
2024-02-29 06:50 am W 19.4 25.3 14.4 97.4 SW29.71- 45.7 53.4----
2024-02-29 06:40 amWNW 17.5 23.3 14.4-7.4 SW29.72- 45.3 53.4----
2024-02-29 06:30 amWNW 15.5 23.3----29.72- 45.5 53.4----
2024-02-29 06:20 amWNW 17.5 21.4 16.1 87.4SSW29.71- 45.7 53.4----
2024-02-29 06:10 am W 19.4 27.2 16.1-7.4SSW29.71- 45.7 53.4----
2024-02-29 06:00 amWNW 21.4 25.3----29.70+0.03 45.7 53.4----
2024-02-29 05:50 amWNW 21.4 27.2 15.4 97.7 SW29.69- 46.0 53.4----
2024-02-29 05:40 amWNW 23.3 31.1----29.69- 46.0 53.4----
2024-02-29 05:30 amWNW 21.4 27.2----29.69- 46.4 53.4----
2024-02-29 05:20 amWNW 19.4 27.2 15.1 117.5 W29.68- 46.8 53.4----
2024-02-29 05:10 am W 21.4 31.1 15.1-7.5 W29.69- 46.8 53.4----
2024-02-29 05:00 am W 19.4 25.3----29.68-0.02 47.5 53.4----
2024-02-29 04:50 amWNW 21.4 27.2 16.1 87.4 SW29.67- 47.3 53.4----
2024-02-29 04:40 am NW 21.4 29.1 16.1-7.4 SW29.67- 47.8 53.4----
2024-02-29 04:30 am W 19.4 27.2----29.66- 50.4 53.4----
2024-02-29 04:20 am SW 29.1 38.9 15.1 107.2 W29.65- 53.4 53.4----
2024-02-29 04:10 am SW 29.1 38.9 15.1-7.2 W29.65- 53.4 53.4----
2024-02-29 04:00 am SW 29.1 38.9----29.65-0.08 53.4 53.4----
2024-02-29 03:50 am SW 29.1 36.9 13.8 86.9SSW29.65- 53.2 53.4----
2024-02-29 03:40 am SW 29.1 36.9----29.65- 53.1 53.4----
2024-02-29 03:30 am SW 27.2 36.9----29.66- 53.2 53.4----
2024-02-29 03:20 am SW 29.1 38.9 15.7 87.1SSW29.67- 53.1 53.4----
2024-02-29 03:10 am SW 29.1 38.9 15.7-7.1SSW29.67- 52.9 53.4----
2024-02-29 03:00 am SW 29.1 36.9----29.67-0.08 52.9 53.4----
2024-02-29 02:50 am SW 31.1 38.9 13.8 86.7SSW29.68- 52.7 53.4----
2024-02-29 02:40 amSSW 29.1 38.9----29.68- 52.9 53.2----
2024-02-29 02:30 am SW 29.1 38.9----29.68- 52.9 53.2----
2024-02-29 02:20 amSSW 31.1 40.8 12.8 86.6SSW29.69- 52.9 53.2----
2024-02-29 02:10 amSSW 29.1 40.8----29.69- 53.1 53.2----
2024-02-29 02:00 amSSW 29.1 38.9----29.70-0.09 52.9-----
2024-02-29 01:50 amSSW 31.1 38.9 13.8 76.6 S29.70- 52.7 53.4----
2024-02-29 01:40 amSSW 29.1 38.9----29.71- 52.5 53.4----
2024-02-29 01:30 amSSW 27.2 35.0----29.71- 52.3 53.2----
2024-02-29 01:20 amSSW 27.2 38.9 13.5 76.7SSW29.72- 52.3 53.2----
2024-02-29 01:10 amSSW 27.2 36.9----29.72- 52.3 53.2----
2024-02-29 01:00 amSSW 29.1 38.9----29.73-0.10 52.5 53.4----
2024-02-29 12:50 am S 31.1 40.8 14.1 86.6SSW29.72- 52.7 53.2----
2024-02-29 12:40 am S 29.1 36.9 14.1-6.6SSW29.73- 52.7 53.2----
2024-02-29 12:30 am S 31.1 38.9----29.73- 52.9 53.2----
2024-02-29 12:20 am S 29.1 38.9 13.5 86.6 SW29.74- 53.1 53.2----
2024-02-29 12:10 am S 31.1 38.9 13.5-6.6 SW29.74- 53.1 53.2----
2024-02-29 12:00 am S 31.1 40.8----29.75-0.08 53.2-----
2024-02-28 11:50 pm S 31.1 40.8 12.8 86.6SSW29.76- 53.2 53.2----
2024-02-28 11:40 pm S 29.1 36.9----29.77- 53.4 53.2----
2024-02-28 11:30 pm S 29.1 40.8----29.78- 53.6 53.2----
2024-02-28 11:20 pm S 29.1 36.9 12.5 76.4 S29.78- 53.6 53.2----
2024-02-28 11:10 pm S 27.2 35.0 12.5-6.4 S29.78- 53.4 53.2----
2024-02-28 11:00 pm S 29.1 36.9----29.79-0.06 53.4-----
2024-02-28 10:50 pm S 29.1 36.9 11.8 86.4SSW29.79- 53.4 53.2----
2024-02-28 10:40 pm S 27.2 35.0----29.80- 53.1 53.2----
2024-02-28 10:30 pm S 27.2 38.9----29.81- 52.9 53.2----
2024-02-28 10:20 pm S 29.1 38.9 11.5 76.3 S29.81- 52.7 53.2----
2024-02-28 10:10 pm S 27.2 36.9 11.5-6.3 S29.82- 52.7 53.2----
2024-02-28 10:00 pm S 27.2 35.0----29.83-0.04 52.5 53.2----
2024-02-28 09:50 pm S 27.2 36.9 10.5 66.0 S29.83- 52.7 53.2----
2024-02-28 09:40 pm S 25.3 35.0----29.83- 52.7 53.2----
2024-02-28 09:30 pm S 25.3 33.0----29.83- 52.7 53.2----
2024-02-28 09:20 pm S 25.3 33.0 10.5 76.1SSW29.83- 52.9 53.2----
2024-02-28 09:10 pm S 25.3 31.1----29.83- 53.1 53.2----
2024-02-28 09:00 pm S 25.3 35.0----29.83-0.05 53.1 53.2----
2024-02-28 08:50 pm S 25.3 31.1 10.2 76.0 S29.83- 53.2 53.2----
2024-02-28 08:40 pm S 25.3 33.0----29.83- 53.2 53.2----
2024-02-28 08:30 pm S 23.3 31.1----29.83- 53.4 53.2----
2024-02-28 08:20 pm S 25.3 33.0 9.2 75.9 SW29.84- 53.4 53.2----
2024-02-28 08:10 pm S 23.3 31.1----29.84- 53.4 53.2----
2024-02-28 08:00 pm S 23.3 29.1----29.85-0.06 53.4 53.2----
2024-02-28 07:50 pm S 23.3 27.2 8.5 65.8SSW29.85- 53.4 53.4----
2024-02-28 07:40 pm S 23.3 29.1----29.85- 53.4 53.4----
2024-02-28 07:30 pm S 23.3 29.1----29.86- 53.4 53.4----
2024-02-28 07:20 pm S 23.3 29.1 9.2 96.0WNW29.86- 53.4 53.4----
2024-02-28 07:10 pm S 21.4 27.2 9.2-6.0WNW29.86- 53.2 53.4----
2024-02-28 07:00 pm S 19.4 27.2----29.86-0.07 53.2 53.4----
2024-02-28 06:50 pm S 21.4 27.2 8.2 95.8 W29.87- 53.2 53.4----
2024-02-28 06:40 pm S 21.4 27.2----29.87- 53.2 53.2----
2024-02-28 06:30 pm S 21.4 27.2----29.88- 53.2 53.2----
2024-02-28 06:20 pm S 19.4 25.3 7.2 55.6 S29.88- 53.2 53.2----
2024-02-28 06:10 pm S 21.4 27.2----29.88- 53.1 53.2----
2024-02-28 06:00 pm S 21.4 27.2----29.88-0.09 53.1 53.2----
2024-02-28 05:50 pm S 17.5 23.3 7.9 96.0WNW29.89- 53.1 53.4----
2024-02-28 05:40 pm S 17.5 21.4----29.90- 53.1 53.4----
2024-02-28 05:30 pm S 19.4 25.3----29.90- 52.9 53.4----
2024-02-28 05:20 pm S 19.4 27.2 7.2 85.9WNW29.89- 52.9 53.4----
2024-02-28 05:10 pm S 19.4 23.3 7.2-5.9WNW29.90- 52.9 53.4----
2024-02-28 05:00 pm S 17.5 23.3----29.91-0.09 52.9 53.4----
2024-02-28 04:50 pm S 17.5 23.3 7.5 96.0WNW29.91- 52.9 53.4----

Detailed Wave Summary
for 46027 as of
(4:10 pm PST on 02/29/2024)
0010 GMT on 03/01/2024:

These wave data are displayed in rounded times.

     

Click on the graph icon in the table below to see a time series plot of the last five days of that observation.

5-day plot - Significant Wave Height Significant Wave Height (WVHT): 15.1 ft
5-day plot - Swell Height Swell Height (SwH): 10.8 ft
5-day plot - Swell Period Swell Period (SwP): 10.8 sec
5-day plot - Swell Direction Swell Direction (SwD): W
5-day plot - Wind Wave Height Wind Wave Height (WWH): 10.5 ft
5-day plot - Wind Wave Period Wind Wave Period (WWP): 7.1 sec
5-day plot - Wind Wave Direction Wind Wave Direction (WWD): SW
5-day plot - Wave Steepness Wave Steepness (STEEPNESS): AVERAGE
5-day plot - Average Wave Period Average Wave Period (APD): 7.7 sec
Previous observations
TIME
(PST)
5-day plot - Wave Height
WVHT
ft
5-day plot - Swell Height
SwH
ft
5-day plot - Swell Period
SwP
sec
5-day plot - Swell Direction
SwD
 
5-day plot - Wind Wave Height
WWH
ft
5-day plot - Wind Wave Period
WWP
sec
5-day plot - Wind Wave Direction
WWD
 
5-day plot - Wave Steepness
STEEPNESS
 
5-day plot - Average Wave Period
APD
sec
2024-02-29 03:40 pm 14.4 11.2 14.8WNW 9.2 7.7 SW SWELL 7.7
2024-02-29 03:10 pm 13.1 10.5 13.8WNW 8.2 5.9 SW SWELL 7.6
2024-02-29 02:40 pm 16.1 12.8 13.8WNW 9.8 7.7 SW SWELL 8.1
2024-02-29 02:10 pm 13.8 10.5 11.4WNW 8.9 8.3 WSW AVERAGE 7.6
2024-02-29 01:40 pm 13.5 10.8 14.8WNW 8.2 7.7 SW SWELL 7.5
2024-02-29 01:10 pm 12.5 9.5 10.8 W 7.9 7.7 SW AVERAGE 7.1
2024-02-29 12:40 pm 13.8 9.5 14.8 W 9.8 8.3 SW AVERAGE 7.6
2024-02-29 12:10 pm 13.1 7.5 10.8 W 10.8 7.7 SW AVERAGE 7.2
2024-02-29 11:40 am 12.5 6.2 10.8 W 10.8 7.1 SW AVERAGE 7.0
2024-02-29 11:10 am 12.8 5.2 14.8 NW 11.5 10.8 W AVERAGE 7.0
2024-02-29 10:40 am 13.5 6.2 16.0 NW 11.8 10.8 W AVERAGE 7.3
2024-02-29 10:10 am 13.1 9.2 10.8 W 9.5 8.3 SSW AVERAGE 7.4
2024-02-29 09:40 am 13.1 9.5 11.4 W 9.2 8.3 S AVERAGE 7.6
2024-02-29 09:10 am 12.8 9.5 11.4 W 8.2 7.7 S AVERAGE 7.5
2024-02-29 08:40 am 11.8 8.2 11.4 W 8.5 4.8 SW AVERAGE 7.2
2024-02-29 08:10 am 14.1 10.2 11.4 W 10.2 8.3 S AVERAGE 7.6
2024-02-29 07:40 am 12.5 7.9 11.4 W 9.5 8.3 SSW STEEP 7.1
2024-02-29 07:10 am 13.8 9.8 10.0 W 9.8 8.3 S STEEP 7.4
2024-02-29 06:40 am 14.4 10.8 9.1 SW 9.8 6.2 SW STEEP 7.4
2024-02-29 06:10 am 16.1 0.0-- 16.1 8.3 SSWVERY_STEEP 7.4
2024-02-29 05:40 am 15.4 11.8 9.1 SW 9.8 5.3 S STEEP 7.7
2024-02-29 05:10 am 15.1 0.0-- 15.1 10.8 W AVERAGE 7.5
2024-02-29 04:40 am 16.1 0.0-- 16.1 8.3 SWVERY_STEEP 7.4
2024-02-29 04:10 am 15.1 0.0-- 15.1 10.0 W STEEP 7.2
2024-02-29 03:40 am 13.8 3.3 11.4 W 13.5 8.3 SSW STEEP 6.9
2024-02-29 03:10 am 15.7 0.0-- 15.7 8.3 SSWVERY_STEEP 7.1
2024-02-29 02:40 am 13.8 2.6 11.4WNW 13.5 8.3 SSW STEEP 6.7
2024-02-29 02:10 am 12.8 0.0-- 12.8 8.3 SSW STEEP 6.6
2024-02-29 01:40 am 13.8 2.6 14.8SSE 13.5 7.1 SVERY_STEEP 6.6
2024-02-29 01:10 am 13.5 0.0-- 13.5 6.7 SSWVERY_STEEP 6.7
2024-02-29 12:40 am 14.1 0.0-- 14.1 7.7 SSWVERY_STEEP 6.6
2024-02-29 12:10 am 13.5 2.3 14.8 S 13.1 8.3 SW STEEP 6.6
2024-02-28 11:40 pm 12.8 2.3 14.8 S 12.5 7.7 SSWVERY_STEEP 6.6
2024-02-28 11:10 pm 12.5 2.6 21.1 NE 12.1 7.1 SVERY_STEEP 6.4
2024-02-28 10:40 pm 11.8 0.0-- 11.8 7.7 SSWVERY_STEEP 6.4
2024-02-28 10:10 pm 11.5 2.0 13.8 S 11.5 6.7 SVERY_STEEP 6.3
2024-02-28 09:40 pm 10.5 2.6 14.8SSE 10.2 6.2 SVERY_STEEP 6.0
2024-02-28 09:10 pm 10.5 3.0 10.8WNW 10.2 6.7 SSWVERY_STEEP 6.1
2024-02-28 08:40 pm 10.2 3.6 10.0WNW 9.5 6.7 SVERY_STEEP 6.0
2024-02-28 08:10 pm 9.2 3.3 12.1 W 8.5 7.1 SWVERY_STEEP 5.9
2024-02-28 07:40 pm 8.5 3.3 10.8 W 7.9 6.2 SSWVERY_STEEP 5.8
2024-02-28 07:10 pm 9.2 3.9 12.1 W 8.5 9.1 WNW AVERAGE 6.0
2024-02-28 06:40 pm 8.2 4.3 9.1 W 6.9 5.9 SSW AVERAGE 5.8
2024-02-28 06:10 pm 7.2 3.6 9.1WNW 6.2 5.3 SVERY_STEEP 5.6
2024-02-28 05:40 pm 7.9 4.6 9.1WNW 6.6 5.9 SSW AVERAGE 6.0
2024-02-28 05:10 pm 7.2 4.3 12.1 W 5.9 8.3 WNW STEEP 5.9

Plot of wave energy versus frequency (and period)